Weather reports worldwide

Advertisment
Cap Cepet, France (7661): temperature & dewpoint: 08.12.2018 01:00:00 - 14.12.2018 01:00:00 (CET)Cap Cepet, France (7661): wind speed & gusts: 08.12.2018 01:00:00 - 14.12.2018 01:00:00 (CET)Cap Cepet, France (7661): wind direction: 08.12.2018 01:00:00 - 14.12.2018 01:00:00 (CET)Cap Cepet, France (7661): reduced air pressure: 08.12.2018 01:00:00 - 14.12.2018 01:00:00 (CET)Cap Cepet, France (7661): visibility: 08.12.2018 01:00:00 - 14.12.2018 01:00:00 (CET)Cap Cepet, France (7661): precipitation: 08.12.2018 01:00:00 - 14.12.2018 01:00:00 (CET)
Date & Time tt [°C] td [°C] ff [km/h] ff [kn] fx [km/h] fx [kn] dd ppp [hPa] vv [km] rr [mm]
14.12.2018 01:00:00 - - - - - - - - - -
14.12.2018 00:00:00 8,1 3,4 38 21 63 34 NE 1008,7 - 0,0
13.12.2018 23:00:00 7,7 3,9 40 21 58 32 NE 1008,3 - 0,0
13.12.2018 22:00:00 7,4 4,2 40 22 61 33 NE 1008,5 15 0,0
13.12.2018 21:00:00 6,9 4,9 39 21 62 33 NE 1008,3 - 0,0
13.12.2018 20:00:00 7,0 5,3 46 25 78 42 NE 1007,8 - 0,2
13.12.2018 19:00:00 6,6 5,5 48 26 68 37 NE 1007,2 - 0,2
13.12.2018 18:00:00 6,6 5,5 49 26 72 39 NE 1007,2 - 0,4
13.12.2018 17:00:00 6,9 6,2 48 26 70 38 NE 1007,2 - 0,6
13.12.2018 16:00:00 7,2 6,3 51 27 72 39 NE 1007,3 - 0,4
13.12.2018 15:00:00 7,4 5,9 47 26 68 37 NE 1007,6 - 0,4
13.12.2018 14:00:00 7,9 6,2 43 23 69 37 NE 1008,2 - 0,2
13.12.2018 13:00:00 8,0 6,6 44 24 63 34 NE 1008,6 - 0,2
13.12.2018 12:00:00 8,3 7,4 41 22 57 31 NE 1009,3 - 0,2
13.12.2018 11:00:00 8,3 6,8 36 19 49 26 NE 1010,4 - 0,0
13.12.2018 10:00:00 8,3 6,4 32 17 52 28 NE 1010,6 - 0,0
13.12.2018 09:00:00 8,1 6,7 37 20 53 29 NE 1010,4 - 0,2
13.12.2018 08:00:00 8,2 6,3 34 18 46 25 NE 1011,2 - 0,0
13.12.2018 07:00:00 8,2 6,5 31 17 43 23 NE 1011,2 15 0,0
13.12.2018 06:00:00 8,2 6,5 26 14 37 20 NE 1011,7 - 0,0
13.12.2018 05:00:00 8,1 6,2 27 15 42 23 NE 1011,9 - 0,0
13.12.2018 04:00:00 8,6 5,7 19 11 29 16 NE 1012,6 10 0,0
13.12.2018 03:00:00 8,4 5,9 18 10 25 13 NE 1013,2 - 0,0
13.12.2018 02:00:00 8,7 6,3 16 9 25 14 NE 1013,2 - 0,0
13.12.2018 01:00:00 8,8 6,2 14 8 19 11 ENE 1014,1 - 0,0
13.12.2018 00:00:00 9,4 7,0 8 5 14 8 NE 1014,7 - 0,0
12.12.2018 23:00:00 9,5 7,1 8 5 13 7 ENE 1014,9 - 0,0
12.12.2018 22:00:00 10,0 7,1 7 4 13 7 NNE 1015,2 - 0,0
12.12.2018 21:00:00 9,5 6,8 7 4 27 15 NNE 1015,4 - 0,0
12.12.2018 20:00:00 10,6 7,1 8 4 13 7 E 1015,0 - 0,0
12.12.2018 19:00:00 10,6 6,9 4 2 15 8 WNW 1015,6 - 0,0
12.12.2018 18:00:00 11,1 7,2 10 6 19 10 NNE 1015,7 - 0,0
12.12.2018 17:00:00 11,1 6,0 0 0 9 5 N 1015,6 - 0,0
12.12.2018 16:00:00 12,8 6,2 5 3 11 6 S 1015,7 25 0,0
12.12.2018 15:00:00 13,0 6,6 3 2 10 5 ESE 1015,9 - 0,0
12.12.2018 14:00:00 13,7 6,3 4 2 13 7 SE 1016,2 - 0,0
12.12.2018 13:00:00 12,8 7,0 9 5 16 9 NE 1016,4 - 0,0
12.12.2018 12:00:00 10,4 6,5 9 5 16 8 ENE 1017,2 - 0,0
12.12.2018 11:00:00 9,5 6,0 8 5 13 7 ENE 1017,8 - 0,0
12.12.2018 10:00:00 10,8 5,7 0 0 6 4 N 1017,9 25 0,0
12.12.2018 09:00:00 8,8 5,9 2 1 8 5 NE 1017,6 - 0,0
12.12.2018 08:00:00 7,8 5,4 6 3 9 5 ENE 1017,1 - 0,0
12.12.2018 07:00:00 9,2 5,4 6 3 11 6 NE 1016,9 24 0,0
12.12.2018 06:00:00 8,9 5,5 5 3 9 5 NE 1016,9 - 0,0
12.12.2018 05:00:00 8,5 5,6 6 3 14 7 NE 1017,3 - 0,0
12.12.2018 04:00:00 8,3 5,2 10 6 13 7 NE 1017,5 - 0,0
12.12.2018 03:00:00 8,6 5,3 8 4 11 6 NE 1017,8 - 0,0
12.12.2018 02:00:00 9,5 5,7 9 5 17 9 NE 1017,6 - 0,0
12.12.2018 01:00:00 7,8 4,0 13 7 18 10 ENE 1018,0 - 0,0
12.12.2018 00:00:00 8,0 4,2 13 7 16 9 ENE 1018,3 - 0,0
11.12.2018 23:00:00 8,9 4,3 9 5 15 8 ENE 1018,3 - 0,0
11.12.2018 22:00:00 8,9 4,7 12 7 16 9 ENE 1018,0 - 0,0
11.12.2018 21:00:00 9,6 5,6 9 5 16 9 NE 1018,0 - 0,0
11.12.2018 20:00:00 10,2 6,5 8 4 18 10 NE 1017,8 - 0,0
11.12.2018 19:00:00 10,6 5,4 11 6 21 11 NE 1017,4 21 0,0
11.12.2018 18:00:00 11,3 5,4 13 7 22 12 NE 1017,2 - 0,0
11.12.2018 17:00:00 12,1 4,8 15 8 26 14 NE 1016,9 - 0,0
11.12.2018 16:00:00 14,3 5,4 18 10 28 15 NE 1016,8 23 0,0
11.12.2018 15:00:00 15,6 6,0 15 8 28 15 NE 1016,8 - 0,0
11.12.2018 14:00:00 15,2 5,9 12 6 25 13 NE 1017,0 - 0,0
11.12.2018 13:00:00 14,4 3,8 6 4 15 8 NE 1017,6 - 0,0
11.12.2018 12:00:00 13,0 1,9 4 2 11 6 ENE 1017,9 - 0,0
11.12.2018 11:00:00 12,5 2,3 4 2 10 5 SSW 1018,2 - 0,0
11.12.2018 10:00:00 9,8 0,1 5 3 29 16 W 1018,2 25 0,0
11.12.2018 09:00:00 7,5 0,5 17 9 32 17 WNW 1018,2 - 0,0
11.12.2018 08:00:00 7,5 0,0 15 8 34 18 W 1018,2 - 0,0
11.12.2018 07:00:00 7,3 -0,2 16 8 36 19 SW 1018,1 - 0,0
11.12.2018 06:00:00 8,1 -0,2 23 13 42 23 WNW 1017,9 - 0,0
11.12.2018 05:00:00 8,5 -0,3 15 8 31 17 WNW 1018,3 - 0,0
11.12.2018 04:00:00 8,5 -0,5 12 6 27 15 WSW 1018,7 - 0,0
11.12.2018 03:00:00 8,7 -0,6 16 9 29 15 W 1019,0 - 0,0
11.12.2018 02:00:00 9,0 0,2 19 10 46 25 WNW 1019,2 - 0,0
11.12.2018 01:00:00 8,9 0,1 28 15 56 31 WNW 1019,4 - 0,0
11.12.2018 00:00:00 8,9 1,1 35 19 57 31 WNW 1019,6 - 0,0
10.12.2018 23:00:00 8,9 0,6 36 20 66 35 WNW 1019,4 - 0,0
10.12.2018 22:00:00 9,5 1,4 43 23 71 38 WNW 1019,4 - 0,0
10.12.2018 21:00:00 9,4 1,5 39 21 74 40 WNW 1020,0 - 0,0
10.12.2018 20:00:00 9,8 1,9 43 23 96 52 WNW 1020,0 - 0,0
10.12.2018 19:00:00 10,3 1,9 59 32 99 54 WNW 1018,7 - 0,0
10.12.2018 18:00:00 10,7 1,5 45 25 64 35 W 1020,5 - 0,0
10.12.2018 17:00:00 11,0 1,5 29 15 57 31 W 1021,0 - 0,0
10.12.2018 16:00:00 12,3 1,6 34 19 63 34 W 1020,6 25 0,0
10.12.2018 15:00:00 13,0 1,6 37 20 65 35 W 1020,7 - 0,0
10.12.2018 14:00:00 13,0 1,9 41 22 66 36 W 1021,0 - 0,0
10.12.2018 13:00:00 12,8 1,8 36 20 67 36 W 1021,7 25 0,0
10.12.2018 12:00:00 12,4 1,7 35 19 65 35 WNW 1022,3 - 0,0
10.12.2018 11:00:00 12,2 1,5 34 18 61 33 WNW 1022,6 - 0,0
10.12.2018 10:00:00 11,6 1,2 29 16 68 37 WNW 1022,0 20 0,0
10.12.2018 09:00:00 11,1 0,8 31 17 79 43 WNW 1021,1 - 0,0
10.12.2018 08:00:00 11,0 0,1 41 22 88 48 WNW 1020,3 - 0,0
10.12.2018 07:00:00 11,0 0,4 51 27 114 62 WNW 1019,1 15 0,0
10.12.2018 06:00:00 11,3 1,2 61 33 119 64 WNW 1018,5 - 0,0
10.12.2018 05:00:00 11,5 1,7 61 33 108 58 WNW 1018,3 - 0,0
10.12.2018 04:00:00 11,3 1,8 56 31 96 52 WNW 1019,3 - 0,0
10.12.2018 03:00:00 11,5 2,0 52 28 99 54 WNW 1019,9 - 0,0
10.12.2018 02:00:00 11,5 2,2 56 30 96 52 WNW 1020,2 - 0,0
10.12.2018 01:00:00 11,1 2,9 51 28 90 48 WNW 1020,2 - 0,0
10.12.2018 00:00:00 11,1 3,1 59 32 86 46 W 1020,1 - 0,0
09.12.2018 23:00:00 11,6 2,9 52 28 86 47 WNW 1020,4 - 0,0
09.12.2018 22:00:00 11,5 3,3 43 23 73 39 WNW 1020,9 - 0,0
09.12.2018 21:00:00 11,9 3,4 46 25 81 44 WNW 1020,1 - 0,0
09.12.2018 20:00:00 12,4 3,1 43 23 78 42 WNW 1019,7 - 0,0
09.12.2018 19:00:00 12,7 3,9 44 24 79 43 WNW 1019,1 - 0,0
09.12.2018 18:00:00 12,9 4,8 36 19 63 34 WNW 1018,6 - 0,0
09.12.2018 17:00:00 13,0 5,6 35 19 60 33 WNW 1018,2 - 0,0
09.12.2018 16:00:00 14,7 7,0 33 18 87 47 WNW 1017,3 22 0,0
09.12.2018 15:00:00 15,7 6,7 49 26 90 49 W 1015,9 - 0,0
09.12.2018 14:00:00 15,5 7,0 54 29 91 49 W 1015,9 - 0,0
09.12.2018 13:00:00 15,2 7,0 58 31 93 50 WNW 1016,5 - 0,0
09.12.2018 12:00:00 15,1 7,1 56 30 91 49 W 1016,8 - 0,0
09.12.2018 11:00:00 15,1 7,4 57 31 104 56 W 1017,0 - 0,0
09.12.2018 10:00:00 14,7 8,6 57 31 98 53 W 1016,8 20 0,0
09.12.2018 09:00:00 14,1 8,7 49 27 88 47 W 1017,4 - 0,0
09.12.2018 08:00:00 12,6 7,1 40 21 67 36 W 1018,2 - 0,0
09.12.2018 07:00:00 12,5 7,0 49 26 79 43 WNW 1017,7 10 0,0
09.12.2018 06:00:00 12,3 7,4 49 27 82 45 WNW 1018,0 - 0,0
09.12.2018 05:00:00 12,0 7,1 46 25 74 40 WNW 1017,9 - 0,0
09.12.2018 04:00:00 11,8 6,3 49 26 81 44 W 1018,4 10 0,0
09.12.2018 03:00:00 11,9 6,0 41 22 74 40 WNW 1018,6 - 0,0
09.12.2018 02:00:00 11,6 5,9 37 20 66 36 WNW 1018,9 - 0,0
09.12.2018 01:00:00 11,1 5,4 40 21 71 38 W 1019,9 - 0,0
09.12.2018 00:00:00 11,5 5,4 50 27 78 42 W 1019,9 - 0,0
08.12.2018 23:00:00 11,4 4,1 36 19 67 36 WNW 1020,3 - 0,0
08.12.2018 22:00:00 11,9 3,9 42 23 72 39 WNW 1020,2 - 0,0
08.12.2018 21:00:00 12,1 3,1 42 23 67 36 WNW 1020,4 - 0,0
08.12.2018 20:00:00 12,2 2,3 39 21 70 38 WNW 1020,1 - 0,0
08.12.2018 19:00:00 11,6 2,6 37 20 55 30 W 1020,4 - 0,0
08.12.2018 18:00:00 11,6 2,3 34 18 51 27 W 1020,3 - 0,0
08.12.2018 17:00:00 11,9 1,8 29 16 75 41 W 1020,2 - 0,0
08.12.2018 16:00:00 12,8 1,8 40 22 69 37 W 1019,8 - 0,0
08.12.2018 15:00:00 13,4 1,4 34 19 79 43 WNW 1019,9 - 0,0
08.12.2018 14:00:00 13,2 1,2 44 24 79 43 WNW 1020,0 - 0,0
08.12.2018 13:00:00 13,0 0,7 42 23 83 45 WNW 1020,4 25 0,0
08.12.2018 12:00:00 12,3 1,0 41 22 69 38 WNW 1021,1 - 0,0
08.12.2018 11:00:00 11,5 0,9 39 21 71 38 W 1021,5 - 0,0
08.12.2018 10:00:00 10,3 0,3 33 18 56 30 W 1021,5 20 0,0
08.12.2018 09:00:00 9,6 0,2 34 18 68 37 W 1021,5 - 0,0
08.12.2018 08:00:00 9,3 -0,1 38 21 63 34 W 1020,9 - 0,0
08.12.2018 07:00:00 9,8 -0,4 31 17 64 34 W 1020,4 20 0,0
08.12.2018 06:00:00 10,0 -0,5 27 14 64 35 WNW 1019,4 - 0,0
08.12.2018 05:00:00 10,2 0,2 30 16 77 41 WNW 1018,9 - 0,0
08.12.2018 04:00:00 10,5 0,8 42 23 90 49 WNW 1018,4 20 0,0
08.12.2018 03:00:00 11,4 0,5 41 22 85 46 WNW 1017,2 - 0,0
08.12.2018 02:00:00 11,9 1,5 48 26 89 48 WNW 1016,3 - 0,0
08.12.2018 01:00:00 12,5 5,2 41 22 84 45 WNW 1016,6 - 0,0

tt = temperature
td = dewpoint
ff = wind speed
fx = gusts
dd = wind direction
ppp = reduced air pressure
vv = visibility
rr = precipitation

Next stations